Regional Weather Roundup
Issued by NWS

Home | Current Version | Previous Version | Text Only | Print | Product List | Glossary On
Versions: 1 2 3 4 5 6 7 8 9 10 11 12 13 14 15 16 17 18 19 20 21 22 23 24 25 26 27 28 29 30 31 32 33 34 35 36 37 38 39 40 41 42 43 44 45 46 47 48 49 50
000
ASUS44 KFWD 091910
RWRTX
NORTH TEXAS HOURLY WEATHER ROUNDUP
NATIONAL WEATHER SERVICE FORT WORTH TX
100 PM CST FRI DEC 09 2016

NOTE: "FAIR" INDICATES FEW OR NO CLOUDS BELOW 12,000 FEET WITH NO
SIGNIFICANT WEATHER AND/OR OBSTRUCTIONS TO VISIBILITY.

TXZ118-119-092000-
DALLAS/FORT WORTH METROPLEX

CITY           SKY/WX    TMP DP  RH WIND       PRES   REMARKS
DFW AIRPORT    CLOUDY    36  12  37 CALM      30.57F
DALLAS LOVE    CLOUDY    37  15  40 CALM      30.59F
FTW MEACHAM    CLOUDY    37  12  35 CALM      30.58F
DAL-EXECUTIVE  CLOUDY    36  14  40 CALM      30.57F
FTW-ALLIANCE   CLOUDY    36  11  35 SE6       30.57F WCI  31
FTW-NAS-JRB    CLOUDY    37  15  40 CALM      30.59F
FTW-SPINKS     CLOUDY    36  16  44 SE3       30.59F
ARLINGTON      CLOUDY    36  13  38 VRB3      30.58F
GRAND PRAIRIE  PTSUNNY   36  16  44 NE5       30.60F WCI  32
ADDISON        CLOUDY    36  12  38 E6        30.59F WCI  31
MESQUITE       CLOUDY    36  18  48 CALM      30.60F
LANCASTER      CLOUDY    37  16  43 CALM      30.60F
$$

TXZ091>094-102>105-117-120-121-131>134-092000-
NORTH CENTRAL TEXAS

CITY           SKY/WX    TMP DP  RH WIND       PRES   REMARKS
SHRMAN/DENISON CLOUDY    36  13  39 SE6       30.58F WCI  31
GAINESVILLE    CLOUDY    36  12  37 S5        30.58F WCI  32
BOWIE          CLOUDY    36  15  43 S8        30.54F WCI  30
BRIDGEPORT     CLOUDY    36  18  48 SE6       30.58F WCI  31
DECATUR        CLOUDY    34  12  40 SE7       30.55F WCI  28
DENTON         CLOUDY    35  14  42 E5        30.58F WCI  31
MCKINNEY       CLOUDY    35  16  45 CALM      30.58F
BONHAM         CLOUDY    36  16  44 CALM      30.59F
GREENVILLE     CLOUDY    37  14  38 SE3       30.59F
ROCKWALL       CLOUDY    36  17  46 CALM      30.59F
TERRELL        CLOUDY    38  16  40 CALM      30.59F
WAXAHACHIE     CLOUDY    35  18  49 CALM      30.60F
CLEBURNE       CLOUDY    36  12  38 CALM      30.58F
GRANBURY       CLOUDY    37  14  38 SE3       30.59F
$$

TXZ083>090-098>101-113>116-127>130-139>142-154-155-092000-
WESTERN NORTH TEXAS

CITY           SKY/WX    TMP DP  RH WIND       PRES   REMARKS
WICHITA FALLS  CLOUDY    35  13  40 S10       30.53F WCI  27
WF-KICKAPOO    CLOUDY    35  14  42 S10       30.54F WCI  27
VERNON         CLOUDY    35  10  34 S14       30.50F WCI  26
ABILENE        CLOUDY    35  18  49 S8        30.50F WCI  29
ABILENE-DYESS  CLOUDY    36  17  46 SE12      30.47F WCI  27
CISCO          CLOUDY    34  14  44 S8        30.52F WCI  27
BRECKENRIDGE   CLOUDY    37  14  38 S6        30.52F WCI  32
GRAHAM         CLOUDY    35  17  48 SE6       30.52F WCI  30
MINERAL WELLS  CLOUDY    36  13  38 S7        30.55F WCI  30
STEPHENVILLE   CLOUDY    36  13  39 SE3       30.56F
COMANCHE       CLOUDY    38  17  42 S3        30.54F
BROWNWOOD      CLOUDY    39  16  38 S3        30.53F
COLEMAN        CLOUDY    38  17  43 CALM      30.52F
$$

TXZ143>147-156>162-174-175-092000-
CENTRAL TEXAS

CITY           SKY/WX    TMP DP  RH WIND       PRES   REMARKS
WACO           SUNNY     42  18  37 N5        30.58F WCI  39
WACO-MCGREGOR  SUNNY     41  19  41 E5        30.58F WCI  38
HILLSBORO      CLOUDY    39  19  44 CALM      30.57F
CORSICANA      CLOUDY    40  18  41 E7        30.59F WCI  35
MEXIA          SUNNY     42  17  36 W8        30.56F WCI  37
HEARNE         CLOUDY    43  18  37 CALM      30.59F
CAMERON        CLOUDY    42  20  41 W3        30.58F
TEMPLE         SUNNY     42  19  39 CALM      30.57F
KILLEEN        CLOUDY    40  16  37 CALM      30.53F
KILLEEN-SKYLRK MOSUNNY   41  18  39 VRB5      30.56F WCI  38
FORT HOOD      PTSUNNY   43  18  36 CALM      30.52F
GATESVILLE     SUNNY     41  16  36 CALM      30.58F
HAMILTON       SUNNY     42  18  37 E3        30.54F
LAMPASAS       CLOUDY    40  17  39 S3        30.53F
$$

TXZ095>097-106>112-122>126-135>138-148>153-164>167-092000-
EAST TEXAS

CITY           SKY/WX    TMP DP  RH WIND       PRES   REMARKS
PARIS          PTSUNNY   37  16  41 CALM      30.59F
SULPHUR SPRNGS CLOUDY    38  18  44 E3        30.61F
MOUNT PLEASANT SUNNY     40  16  38 NE3       30.61F
GILMER         CLOUDY    40  18  39 NE5       30.58F WCI  37
MINEOLA        CLOUDY    39  16  38 CALM      30.59F
TYLER          CLOUDY    41  19  41 NE6       30.57F WCI  37
LONGVIEW       MOSUNNY   43  19  38 VRB6      30.57F WCI  39
MARSHALL       SUNNY     39  15  38 NE3       30.60F
ATHENS         CLOUDY    37  18  44 NE5       30.57F WCI  34
PALESTINE      SUNNY     43  20  41 N6        30.58F WCI  39
JACKSONVILLE   CLOUDY    41  20  43 N6        30.57F WCI  37
HENDERSON      MOSUNNY   42  19  39 NW5       30.58F WCI  39
CENTER         CLEAR     44  19  37 N7        30.57F WCI  40
NACOGDOCHES    SUNNY     46  19  34 CALM      30.55F
LUFKIN         PTSUNNY   44  19  36 VRB6      30.56F
$$

SUPPLEMENTAL OBSERVATIONS (CENTRAL)

CITY           SKY/WX    TMP DP  RH WIND       PRES   REMARKS
CADDO GRASSLND   N/A     37  16  41 S5          N/A  WCI  34
PAT MAYSE LAKE   N/A     36  12  38 S5          N/A  WCI  32
GREENVILLE       N/A     37  16  41 W1          N/A
MCGREGOR         N/A     45  23  42 NE5         N/A
TEMPLE           N/A     43  19  39 NE3         N/A
$$

SUPPLEMENTAL OBSERVATIONS (WEST)

CITY           SKY/WX    TMP DP  RH WIND       PRES   REMARKS
MILLERS CREEK    N/A     36  21  55 S10         N/A  WCI  28
POSSUM KINGDOM   N/A     36  16  44 SE7         N/A  WCI  30
LBJ GRASSLAND    N/A     36  14  41 CALM        N/A
GRANBURY         N/A     37  16  41 SE2         N/A
HAMBY            N/A     36  18  48 S9          N/A  WCI  29
COLORADO BEND    N/A     43  18  36 SW3         N/A
$$

SUPPLEMENTAL OBSERVATIONS (EAST)

CITY           SKY/WX    TMP DP  RH WIND       PRES   REMARKS
TEXARKANA        N/A     37  16  41 N6          N/A  WCI  33
LINDEN           N/A     43  19  39 E3          N/A
GILMER           N/A     43  18  36 E5          N/A
HENDERSON        N/A     43  18  36 E6          N/A  WCI  39
LUFKIN           N/A     46  19  34 MISG        N/A
N SABINE NF      N/A     45  21  39 MISG        N/A
$$

SUPPLEMENTAL OBSERVATIONS ARE A COLLECTION OF AUTOMATED INSTRUMENTS
THAT ARE MAINTAINED BY A VARIETY OF FEDERAL AND STATE AGENCIES.
CERTAIN ELEMENTS...SUCH AS HUMIDITY VALUES AND SUSTAINED WIND
SPEEDS...MAY BE APPROXIMATED.




USA.gov is the U.S. government's official web portal to all federal, state and local government web resources and services.